Location: Hilde
(52.9479°N, 6.4449°E)
Time: 21:32:58
(UTC+00:00)

Cosmos 2322 Rocket - Pass Details

Date: 15 May 2026
Orbit: 831 x 850 km, 71.0° (Epoch: 10 June)

Event Time Altitude Azimuth Distance (km) Brightness Sun altitude
Rises 22:16:42 0° 321° (NW) 3,409 6.7 -16.2°
Reaches altitude 10° 22:19:39 10° 306° (NW) 2,472 5.4 -16.4°
Maximum altitude 22:23:50 22° 259° (WSW) 1,783 3.9 -16.6°
Enters shadow 22:27:30 12° 214° (SW) 2,324 4.1 -16.7°
